Forks, WA

4:39 PM PST on January 21, 2017 (GMT -0800)
Quillayute

Weather History for KUIL - October, 2012

Change the Weather History Date:

Friday, October 5, 2012

  Actual Average Record
Temperature  
Mean Temperature 54 °F 52 °F  
Max Temperature 71 °F 62 °F 79 °F (1991)
Min Temperature 37 °F 43 °F 32 °F (1972)
Degree Days  
Heating Degree Days 11 13  
Month to date heating degree days 61  
Since 1 July heating degree days 686  
Cooling Degree Days 0 0  
Month to date cooling degree days 0  
Year to date cooling degree days 19  
Growing Degree Days 4 (Base 50)    
Moisture  
Dew Point 29 °F    
Average Humidity 40    
Maximum Humidity 70    
Minimum Humidity 10    
Precipitation  
Precipitation 0.00 in 0.24 in 2.55 in (1975)
Month to date precipitation 1.14  
Year to date precipitation 61.68  
Sea Level Pressure  
Sea Level Pressure 30.22 in    
Wind  
Wind Speed 6 mph (NE)    
Max Wind Speed 17 mph    
Max Gust Speed 23 mph    
Visibility 9 miles    
Events      
T = Trace of Precipitation, MM = Missing Value Source: NWS Daily Summary

Daily Weather History Graph

Daily Weather History Graph

Search for Another Location

Airport or City:

Trip Planner

Search our weather history database for the weather conditions in past years. The results will help you decide how hot, cold, wet, or windy it might be!

Date:

Astronomy

Oct. 05, 2012 Rise Set
Actual Time 7:23 AM PDT 6:48 PM PDT
Civil Twilight 6:52 AM PDT 7:19 PM PDT
Nautical Twilight 6:17 AM PDT 7:54 PM PDT
Astronomical Twilight 5:40 AM PDT 8:31 PM PDT
Moon 9:55 PM PDT (10/5) 12:57 PM PDT (10/5)
Length of Visible Light 12h 26m
Length of Day
11h 24m
Waning Gibbous, 73% of the Moon is Illuminated
Oct 5
Waning Gibbous
Oct 8
Last Quarter
Oct 15
New
Oct 21
First Quarter
Oct 29
Full

Hourly Weather History & Observations

Time (PDT) Temp. Windchill Dew Point Humidity Pressure Visibility Wind Dir Wind Speed Gust Speed Precip Events Conditions
12:53 AM 45.0 °F 42.6 °F 28.9 °F 53% 30.25 in 9.0 mi ENE 4.6 mph - N/A   Clear
1:53 AM 41.0 °F - 28.9 °F 62% 30.26 in 9.0 mi Calm Calm - N/A   Clear
2:53 AM 39.9 °F 37.8 °F 30.0 °F 68% 30.26 in 9.0 mi East 3.5 mph - N/A   Clear
3:53 AM 39.0 °F 36.8 °F 28.9 °F 67% 30.25 in 9.0 mi NE 3.5 mph - N/A   Clear
4:53 AM 39.9 °F - 28.9 °F 65% 30.23 in 9.0 mi Calm Calm - N/A   Clear
5:53 AM 37.9 °F 35.5 °F 28.9 °F 70% 30.23 in 9.0 mi ENE 3.5 mph - N/A   Clear
6:53 AM 46.0 °F 44.8 °F 28.9 °F 51% 30.24 in 9.0 mi Variable 3.5 mph - N/A   Clear
7:53 AM 46.9 °F - 30.0 °F 52% 30.25 in 8.0 mi East 4.6 mph - N/A   Clear
8:53 AM 55.0 °F - 30.9 °F 40% 30.24 in 9.0 mi Variable 4.6 mph - N/A   Clear
9:53 AM 63.0 °F - 30.9 °F 30% 30.25 in 9.0 mi NE 9.2 mph - N/A   Clear
10:53 AM 66.0 °F - 30.9 °F 27% 30.25 in 9.0 mi East 6.9 mph - N/A   Clear
11:53 AM 66.9 °F - 32.0 °F 27% 30.25 in 9.0 mi NE 12.7 mph - N/A   Clear
12:53 PM 69.1 °F - 33.1 °F 26% 30.24 in 9.0 mi NE 11.5 mph - N/A   Clear
1:53 PM 70.0 °F - 30.9 °F 24% 30.23 in 8.0 mi NE 8.1 mph - N/A   Clear
2:53 PM 70.0 °F - 28.0 °F 21% 30.22 in 9.0 mi NE 11.5 mph - N/A   Clear
3:53 PM 69.1 °F - 25.0 °F 19% 30.20 in 8.0 mi NE 15.0 mph 23.0 mph N/A   Clear
4:53 PM 68.0 °F - 25.0 °F 20% 30.19 in 9.0 mi ENE 10.4 mph - N/A   Clear
5:53 PM 66.0 °F - 25.0 °F 21% 30.19 in 9.0 mi NNE 6.9 mph - N/A   Clear
6:53 PM 61.0 °F - 25.0 °F 25% 30.19 in 8.0 mi NNE 9.2 mph - N/A   Clear
7:53 PM 57.0 °F - 25.0 °F 29% 30.19 in 10.0 mi NE 4.6 mph - N/A   Clear
8:53 PM 48.9 °F - 30.9 °F 50% 30.19 in 10.0 mi Calm Calm - N/A   Clear
9:53 PM 46.9 °F - 30.9 °F 54% 30.19 in 10.0 mi NE 5.8 mph - N/A   Clear
10:53 PM 46.9 °F - 30.0 °F 52% 30.19 in 10.0 mi ENE 3.5 mph - N/A   Clear
11:53 PM 46.9 °F - 30.9 °F 54% 30.20 in 10.0 mi Calm Calm - N/A   Clear